Regional Weather Roundup
Issued by NWS Albany, NY

Home | Current Version | Previous Version | Graphics & Text | Print | Product List | Glossary Off
Versions: 1 2 3 4 5 6 7 8 9 10 11 12 13 14 15 16 17 18 19 20 21 22 23 24 25 26 27 28 29 30 31 32 33 34 35 36 37 38 39 40 41 42 43 44 45 46 47 48 49 50

000
ASUS41 KALY 021810
RWRALY

NEW YORK STATE HOURLY WEATHER ROUNDUP
NATIONAL WEATHER SERVICE ALBANY NY
200 PM EDT TUE JUN 02 2015

NOTE: "FAIR" INDICATES FEW OR NO CLOUDS BELOW 12,000 FEET WITH NO
SIGNIFICANT WEATHER AND/OR NO OBSTRUCTIONS TO VISIBILITY.

NYZ032-033-038>043-046>054-057>066-NYZ062>081-021900-
EAST


CITY           SKY/WX    TMP DP  RH WIND       PRES   REMARKS
ALBANY         CLOUDY    58  47  66 VRB3      30.17F
GLENS FALLS    CLOUDY    57  48  72 CALM      30.16F
POUGHKEEPSIE   CLOUDY    55  49  80 N3        30.16F
NEWBURGH       DRIZZLE   52  50  93 NE5       30.18S
MONTGOMERY     LGT RAIN  55  50  83 N6        30.16F
WHITE PLAINS   LGT RAIN  52  49  89 N7        30.14F FOG
ISLIP          LGT RAIN  53  49  86 N14       30.12S
NEW YORK CITY  LGT RAIN  54  49  83 N9G18     30.14S
CENTRAL PARK   LGT RAIN  54  50  86 VRB6      30.17S
$$

NYZ005>009-017-018-044>046-055-056-021900-
CENTRAL


CITY           SKY/WX    TMP DP  RH WIND       PRES   REMARKS
FULTON         CLOUDY    58  49  72 NW12      30.19S
SYRACUSE       CLOUDY    60  52  74 VRB3      30.17S
ROME           CLOUDY    59  51  75 W3        30.17F
ELMIRA         CLOUDY    58  51  78 NW6       30.17F
BINGHAMTON     CLOUDY    56  50  80 NW6       30.16S
MONTICELLO     CLOUDY    50  50 100 CALM      30.17S
$$

NYZ026>034-041>043-021900-
NORTH


CITY           SKY/WX    TMP DP  RH WIND       PRES   REMARKS
WATERTOWN      CLOUDY    59  47  64 N14       30.19F
FORT DRUM      NOT AVBL
MASSENA        CLOUDY    55  47  74 NE7       30.21S
SARANAC LAKE   CLOUDY    53  48  83 VRB5      30.14S
PLATTSBURGH    CLOUDY    56  47  71 E5        30.16F
$$

NYZ001>004-010>016-019>021-021900-
WEST


CITY           SKY/WX    TMP DP  RH WIND       PRES   REMARKS
NIAGARA FALLS  PTSUNNY   65  48  54 NE14      30.19F
BUFFALO        MOSUNNY   65  47  52 N12       30.18F
DUNKIRK        MOSUNNY   62  51  67 N9        30.18F
JAMESTOWN      MOSUNNY   61  45  55 NE12G18   30.18F
WELLSVILLE     PTSUNNY   58  46  64 NE7       30.19F
ROCHESTER      CLOUDY    57  48  72 NE9       30.22S
PENN YAN       CLOUDY    56  49  77 VRB5      30.19F
$$

             KEY
       WCI = WIND CHILL INDEX
       VSB = VISIBILITY
       HX  = HEAT INDEX
$$



USA.gov is the U.S. government's official web portal to all federal, state and local government web resources and services.